Location: Lancaster
(54.0470°N, 2.8020°W)
Time: 13:15:57
(UTC+01:00)

COSMOS 2428 - Visible Passes

Search period start: 25 September 2016 00:00
Search period end: 05 October 2016 00:00
Orbit: 843 x 859 km, 70.9° (Epoch: 25 September)

Date Brightness Start Highest point End Pass type
(mag) Time Alt. Az. Time Alt. Az. Time Alt. Az.
25 Sep 5.3 00:11:02 10° NNW 00:14:27 16° NNE 00:17:52 10° NE visible
25 Sep 4.3 01:55:34 10° NNW 02:00:39 31° NE 02:02:52 24° ENE visible
25 Sep 2.8 03:39:46 10° NW 03:44:42 65° NW 03:44:42 65° NW visible
25 Sep 4.5 05:25:20 10° WNW 05:26:34 14° WNW 05:26:34 14° WNW visible
25 Sep 4.3 20:24:19 10° WSW 20:29:35 37° NW 20:34:54 10° NNE visible
25 Sep 5.3 22:11:57 10° NW 22:15:36 17° NNW 22:19:15 10° NNE visible
25 Sep 5.3 23:58:53 10° NNW 00:02:19 16° NNE 00:05:45 10° NE visible
26 Sep 4.3 01:43:26 10° NNW 01:48:31 31° NE 01:49:17 30° NE visible
26 Sep 3.6 03:27:38 10° NW 03:31:12 39° NW 03:31:12 39° NW visible
26 Sep 4.3 20:12:11 10° WSW 20:17:27 37° NW 20:22:46 10° NNE visible
26 Sep 5.3 21:59:50 10° NW 22:03:28 17° NNW 22:07:08 10° NNE visible
26 Sep 5.3 23:46:46 10° NNW 23:50:12 16° NNE 23:53:37 10° NE visible
27 Sep 4.3 01:31:19 10° NNW 01:36:17 31° NE 01:36:17 31° NE visible
27 Sep 4.1 03:15:31 10° NW 03:18:14 29° NW 03:18:14 29° NW visible
27 Sep 4.3 20:00:04 10° WSW 20:05:20 37° NW 20:10:39 10° NNE visible
27 Sep 5.3 21:47:42 10° NW 21:51:21 17° NNW 21:55:00 10° NNE visible
27 Sep 5.2 23:34:39 10° NNW 23:38:04 16° NNE 23:41:30 10° NE visible
28 Sep 4.4 01:19:11 10° NNW 01:23:35 30° NNE 01:23:35 30° NNE visible
28 Sep 4.4 03:03:23 10° NW 03:05:32 24° NW 03:05:32 24° NW visible
28 Sep 4.3 19:47:57 10° WSW 19:53:12 36° NW 19:58:31 10° NNE visible
28 Sep 5.2 21:35:35 10° NW 21:39:13 17° NNW 21:42:53 10° NNE visible
28 Sep 5.2 23:22:31 10° NNW 23:25:57 16° NNE 23:29:05 11° NE visible
29 Sep 4.4 01:07:03 10° NNW 01:11:03 29° NNE 01:11:03 29° NNE visible
29 Sep 4.6 02:51:16 10° NW 02:53:01 21° NW 02:53:01 21° NW visible
29 Sep 4.3 19:35:49 10° WSW 19:41:05 36° NW 19:46:24 10° NNE visible
29 Sep 5.2 21:23:27 10° NW 21:27:06 17° NNW 21:30:46 10° NNE visible
29 Sep 5.2 23:10:24 10° NNW 23:13:50 16° NNE 23:16:39 12° NE visible
30 Sep 4.5 00:54:57 10° NNW 00:58:37 28° NNE 00:58:37 28° NNE visible
30 Sep 4.8 02:39:08 10° NW 02:40:36 19° NW 02:40:36 19° NW visible
30 Sep 4.3 19:23:42 10° WSW 19:28:58 36° NW 19:34:16 10° NNE visible
30 Sep 5.2 21:11:20 10° NW 21:14:59 17° NNW 21:18:39 10° NNE visible
30 Sep 5.1 22:58:16 10° NNW 23:01:42 16° NNE 23:04:19 12° NE visible
01 Oct 4.6 00:42:49 10° NNW 00:46:17 27° N 00:46:17 27° N visible
01 Oct 4.9 02:27:01 10° NW 02:28:16 17° NW 02:28:16 17° NW visible
01 Oct 5.2 20:59:13 10° NW 21:02:52 17° NNW 21:06:31 10° NNE visible
01 Oct 5.1 22:46:09 10° NNW 22:49:35 16° NNE 22:52:01 13° NE visible
02 Oct 4.6 00:30:41 10° NNW 00:34:01 26° N 00:34:01 26° N visible
02 Oct 5.0 02:14:53 10° NW 02:16:00 16° NW 02:16:00 16° NW visible
02 Oct 5.1 20:47:06 10° NW 20:50:45 17° NNW 20:54:24 10° NNE visible
02 Oct 5.0 22:34:02 10° NNW 22:37:28 16° NNE 22:39:48 13° NE visible
03 Oct 4.6 00:18:34 10° NNW 00:21:47 26° N 00:21:47 26° N visible
03 Oct 5.1 02:02:46 10° NW 02:03:46 16° NW 02:03:46 16° NW visible
03 Oct 5.1 20:34:58 10° NW 20:38:37 17° NNW 20:42:17 10° NNE visible
03 Oct 5.0 22:21:55 10° NNW 22:25:21 16° NNE 22:27:36 13° NE visible
04 Oct 4.6 00:06:27 10° NNW 00:09:36 25° N 00:09:36 25° N visible
04 Oct 5.1 01:50:39 10° NW 01:51:35 15° NW 01:51:35 15° NW visible
04 Oct 5.1 20:22:52 10° NW 20:26:30 17° NNW 20:30:10 10° NNE visible
04 Oct 5.0 22:09:47 10° NNW 22:13:14 16° NNE 22:15:28 13° NE visible
